Probability
3 0 0 0 0 3 0 0 3 0 0 0 0 0 0 0 0 0 0 0 0 0 58 100 100 97 87 84 87 90 94 97 100 100 100 100 100 100 100 100 100 100 97 97 97 90 84 87 84
0 0 0 0 0 0 0 0 0 0 0 0 0 0 3 10 0 0 0 0 0 6 84 94 100 100 97 90 90 94 94 94 97 100 100 100 100 100 100 100 97 97 97 94 94 90 81 71 65
0 0 0 0 0 0 0 0 0 0 0 0 0 0 3 10 3 0 0 0 3 19 90 94 100 100 100 100 94 94 94 94 94 100 100 100 100 100 97 97 97 94 94 90 84 84 71 68 65
0 0 0 0 0 0 0 0 0 0 0 0 0 0 3 23 6 0 0 0 6 58 87 100 100 100 100 100 97 94 94 97 100 100 100 97 94 97 94 90 90 87 87 74 71 61 55 55 61
0 0 0 0 0 0 0 0 0 0 0 0 0 0 3 16 6 0 0 0 10 68 77 100 100 100 100 100 100 97 94 100 100 100 100 97 97 97 97 97 97 90 87 81 77 68 71 68 55
0 0 0 0 0 0 0 0 0 0 0 0 0 0 3 10 3 3 0 3 19 71 90 97 100 100 100 100 100 100 100 100 100 100 100 100 97 97 97 100 97 97 97 97 100 97 94 94 90
0 0 0 0 0 0 0 0 0 0 0 0 0 0 3 6 3 3 0 10 39 81 90 97 100 100 100 100 100 100 100 100 100 100 100 100 100 100 100 100 100 100 100 100 100 100 100 100 100
0 0 0 0 0 0 0 0 0 0 0 0 0 0 3 10 6 3 3 13 42 77 90 100 100 100 100 100 100 100 100 100 100 100 100 100 100 97 100 100 100 100 100 100 100 100 100 100 100
0 0 0 0 0 0 0 0 0 0 0 0 0 0 3 10 6 3 3 16 48 81 87 100 100 100 100 100 100 100 100 100 100 100 100 100 97 100 100 100 100 100 100 100 100 100 100 100 100
0 0 0 0 0 0 0 0 0 0 0 0 0 0 10 13 6 6 6 6 35 68 90 94 97 94 97 100 100 100 100 100 100 100 100 100 97 94 97 97 100 100 100 100 100 100 100 100 100
0 0 0 0 0 0 0 0 0 0 0 0 0 0 19 16 16 10 6 6 10 42 81 94 97 94 94 94 90 94 94 97 97 97 97 97 97 94 97 100 100 100 100 100 100 100 100 100 100
0 0 0 0 0 0 0 0 0 0 0 0 0 6 16 26 26 26 23 19 19 23 48 61 77 74 74 71 61 68 87 87 94 94 94 94 94 97 97 97 94 90 90 87 94 94 94 94 94
0 0 0 0 0 0 0 0 0 0 0 0 0 10 19 16 19 19 35 35 26 13 23 29 39 35 32 39 35 39 58 74 84 84 94 94 87 87 90 94 84 77 84 74 74 84 84 90 90
0 0 0 0 0 0 0 0 0 0 0 0 0 16 23 19 19 19 26 26 23 23 13 19 13 23 23 26 26 19 13 29 42 61 68 87 84 77 74 55 52 35 29 35 48 58 55 52 58
0 0 0 0 0 0 0 0 3 3 3 0 10 10 3 13 13 13 13 10 10 16 10 10 16 16 16 19 16 13 6 13 29 39 45 65 74 74 61 42 29 23 6 10 13 6 10 6 6
0 0 0 0 0 0 0 0 6 3 6 6 6 0 0 3 3 10 10 0 0 6 10 13 13 13 10 6 3 13 10 10 19 32 39 52 58 61 48 29 26 6 3 0 0 0 0 0 0
0 0 0 0 3 3 3 6 0 3 3 10 6 6 3 3 3 0 3 3 3 3 3 10 10 13 6 3 3 3 3 6 23 29 23 39 61 52 32 26 19 3 0 0 0 0 0 0 0
0 0 0 0 6 6 3 6 10 10 16 10 6 3 6 6 0 0 0 0 0 0 0 0 6 3 10 10 10 0 6 3 6 13 23 29 35 42 16 19 3 0 0 0 0 0 0 0 0
0 0 0 6 10 6 6 10 10 6 6 10 6 0 0 3 3 3 0 0 0 0 0 0 0 0 3 3 6 10 6 6 10 6 16 16 19 16 16 10 3 0 0 0 0 0 0 0 0
0 0 10 19 32 16 13 13 10 10 10 6 3 3 0 0 0 0 0 0 0 0 0 0 0 0 0 0 3 6 6 3 3 3 3 10 13 13 19 3 3 0 0 0 0 0 0 0 0
0 0 3 10 10 6 3 0 10 3 3 0 0 0 0 0 0 0 0 0 0 0 0 0 0 0 0 0 0 0 0 0 3 0 0 0 0 0 10 3 3 0 0 0 0 0 0 0 0
0 0 0 6 0 0 0 0 3 3 0 0 0 0 0 0 0 0 0 0 0 0 0 0 0 0 0 0 0 0 0 0 0 0 0 0 0 0 0 0 0 0 0 0 0 0 0 0 0
0 0 0 0 0 0 0 0 0 3 0 0 0 0 0 0 0 0 0 0 0 0 0 0 0 0 0 0 0 0 0 0 0 0 0 0 0 0 0 0 0 0 0 0 0 0 0 0 0
0 0 0 0 0 0 0 0 0 3 0 0 0 0 0 0 0 0 0 0 0 0 0 0 0 0 0 0 0 0 0 0 0 0 0 0 0 0 0 0 0 0 0 0 0 0 0 0 0
0 0 0 0 0 0 0 0 0 0 0 0 0 0 0 0 0 0 0 0 0 0 0 0 0 0 0 0 0 0 0 0 0 0 0 0 0 0 0 0 0 0 0 0 0 0 0 0 0
0 0 0 0 0 0 0 0 0 0 0 0 0 0 0 0 0 0 0 0 0 0 0 0 0 0 0 0 0 0 0 0 0 0 0 0 0 0 0 0 0 0 0 0 0 0 0 0 0
0 0 0 0 0 0 0 0 0 0 0 0 0 0 0 0 0 0 0 0 0 0 0 0 0 0 0 0 0 0 0 0 0 0 0 0 0 0 0 0 0 0 0 0 0 0 0 0 0
0 0 0 0 0 0 0 0 0 0 0 0 0 0 0 0 0 0 0 0 0 0 0 0 0 0 0 0 0 0 0 0 0 0 0 0 0 0 0 0 0 0 0 0 0 0 0 0 0
0 0 0 0 0 0 0 0 0 0 0 0 0 0 0 0 0 0 0 0 0 0 0 0 0 0 0 0 0 0 0 0 0 0 0 0 0 0 0 0 0 0 0 0 0 0 0 0 0
0 0 0 0 0 0 0 0 0 0 0 0 0 0 0 0 0 0 0 0 0 0 0 0 0 0 0 0 0 0 0 0 0 0 0 0 0 0 0 0 0 0 0 0 0 0 0 0 0
Height
5912 5912 5913 5913 5914 5913 5912 5912 5911 5910 5909 5909 5908 5908 5908 5908 5909 5911 5909 5908 5908 5907 5907 5907 5907 5906 5906 5905 5904 5903 5902 5901 5901 5900 5900 5900 5900 5900 5899 5899 5899 5898 5898 5897 5897 5896 5895 5895 5894
5913 5913 5914 5914 5913 5913 5913 5912 5912 5911 5910 5909 5909 5908 5908 5908 5908 5908 5907 5907 5907 5907 5906 5906 5906 5905 5904 5903 5903 5902 5901 5900 5900 5900 5900 5899 5899 5899 5899 5898 5898 5897 5897 5897 5897 5896 5896 5895 5894
5912 5912 5913 5913 5913 5913 5913 5912 5912 5911 5910 5910 5909 5908 5908 5908 5907 5907 5907 5907 5906 5906 5905 5905 5904 5904 5903 5902 5902 5901 5900 5900 5899 5899 5899 5898 5898 5898 5897 5897 5897 5896 5896 5896 5896 5896 5895 5895 5894
5912 5912 5912 5912 5911 5911 5911 5911 5911 5910 5910 5910 5909 5908 5908 5908 5907 5906 5906 5905 5905 5905 5904 5904 5903 5902 5902 5901 5900 5900 5899 5898 5898 5898 5897 5897 5897 5896 5896 5895 5895 5895 5894 5894 5894 5894 5894 5894 5894
5910 5911 5911 5910 5909 5909 5909 5910 5910 5909 5909 5909 5908 5908 5907 5907 5906 5905 5905 5904 5904 5904 5903 5902 5901 5900 5900 5899 5898 5898 5897 5896 5896 5895 5895 5895 5895 5894 5894 5893 5893 5892 5892 5892 5892 5892 5892 5892 5892
5909 5909 5909 5908 5907 5907 5907 5907 5908 5908 5907 5907 5907 5907 5906 5905 5904 5904 5903 5903 5903 5902 5902 5901 5899 5898 5897 5896 5896 5895 5894 5894 5893 5893 5892 5892 5891 5891 5890 5890 5890 5889 5889 5889 5889 5889 5889 5889 5890
5906 5906 5906 5906 5904 5904 5904 5905 5905 5905 5905 5905 5905 5905 5904 5904 5903 5903 5902 5902 5901 5901 5900 5899 5898 5896 5895 5894 5893 5892 5891 5891 5890 5890 5889 5889 5888 5887 5887 5886 5886 5886 5885 5885 5885 5885 5885 5885 5886
5902 5904 5903 5902 5901 5901 5901 5901 5902 5903 5903 5903 5903 5903 5903 5903 5902 5901 5901 5900 5899 5899 5898 5897 5896 5894 5893 5892 5891 5890 5889 5888 5887 5886 5885 5884 5884 5883 5883 5882 5882 5881 5881 5881 5881 5881 5880 5881 5881
5899 5900 5899 5899 5898 5898 5897 5897 5898 5899 5900 5901 5901 5901 5901 5900 5899 5898 5898 5897 5897 5896 5895 5895 5893 5892 5891 5889 5888 5887 5886 5884 5883 5882 5881 5880 5879 5879 5878 5877 5877 5877 5876 5876 5876 5876 5876 5876 5876
5895 5896 5896 5895 5894 5895 5894 5895 5895 5896 5898 5898 5898 5897 5897 5897 5896 5896 5895 5895 5894 5893 5892 5891 5890 5889 5887 5885 5884 5882 5881 5879 5878 5877 5876 5875 5874 5873 5873 5872 5871 5871 5871 5871 5871 5871 5870 5870 5870
5891 5892 5892 5891 5891 5892 5892 5892 5892 5893 5894 5894 5894 5894 5893 5893 5893 5893 5892 5891 5891 5889 5888 5886 5885 5883 5881 5880 5878 5877 5875 5873 5871 5870 5869 5868 5868 5867 5867 5866 5866 5865 5865 5865 5865 5865 5865 5865 5865
5887 5888 5888 5888 5888 5889 5889 5889 5889 5889 5890 5890 5889 5889 5889 5889 5889 5888 5888 5887 5885 5884 5883 5881 5879 5877 5875 5872 5870 5869 5867 5865 5863 5862 5861 5860 5860 5860 5859 5859 5859 5859 5859 5859 5859 5859 5859 5859 5859
5882 5883 5884 5885 5885 5884 5885 5884 5884 5884 5884 5884 5884 5884 5884 5884 5884 5883 5883 5882 5880 5878 5876 5874 5872 5870 5867 5864 5861 5859 5856 5855 5854 5853 5852 5852 5851 5851 5852 5852 5852 5853 5853 5853 5853 5853 5853 5853 5854
5878 5879 5879 5879 5879 5878 5878 5877 5877 5877 5878 5878 5879 5879 5879 5879 5879 5878 5878 5876 5874 5871 5869 5866 5864 5862 5859 5855 5852 5850 5847 5843 5842 5842 5841 5841 5842 5842 5843 5844 5845 5846 5846 5846 5847 5847 5847 5848 5848
5873 5874 5874 5873 5873 5872 5873 5873 5872 5873 5873 5874 5874 5874 5874 5874 5873 5873 5872 5870 5867 5865 5862 5859 5856 5853 5850 5847 5844 5841 5837 5832 5830 5830 5829 5830 5831 5832 5833 5835 5836 5838 5839 5839 5840 5840 5841 5841 5842
5869 5869 5869 5869 5868 5868 5871 5869 5869 5869 5869 5869 5869 5869 5869 5868 5868 5866 5865 5863 5861 5858 5855 5852 5848 5845 5842 5839 5835 5831 5827 5822 5820 5819 5819 5819 5820 5822 5824 5826 5829 5830 5831 5832 5833 5834 5835 5835 5836
5864 5864 5864 5865 5864 5865 5865 5865 5865 5865 5865 5865 5865 5865 5864 5863 5862 5860 5859 5856 5853 5851 5848 5845 5841 5837 5835 5832 5828 5823 5818 5815 5812 5810 5809 5809 5811 5813 5815 5818 5820 5822 5824 5825 5827 5827 5828 5829 5830
5861 5861 5861 5861 5861 5861 5861 5861 5861 5861 5861 5861 5861 5861 5860 5858 5857 5855 5852 5849 5846 5843 5840 5838 5835 5831 5829 5826 5821 5816 5811 5808 5805 5803 5802 5802 5803 5806 5807 5810 5813 5815 5817 5818 5820 5821 5821 5822 5824
5858 5858 5858 5858 5858 5858 5858 5858 5859 5858 5858 5858 5857 5856 5854 5853 5851 5848 5846 5842 5839 5836 5833 5830 5827 5824 5822 5819 5815 5810 5806 5803 5801 5799 5797 5797 5797 5799 5801 5803 5804 5807 5809 5811 5812 5813 5815 5816 5817
5856 5856 5855 5855 5855 5855 5854 5855 5855 5855 5854 5853 5852 5851 5849 5846 5844 5841 5838 5834 5831 5829 5826 5823 5820 5817 5814 5812 5808 5805 5802 5799 5797 5795 5794 5792 5792 5793 5795 5796 5797 5800 5801 5803 5804 5806 5808 5809 5811
5855 5854 5854 5853 5852 5851 5851 5851 5851 5850 5849 5848 5846 5844 5842 5839 5836 5832 5829 5826 5823 5821 5818 5815 5812 5809 5806 5803 5801 5799 5796 5794 5792 5791 5789 5788 5788 5788 5790 5790 5791 5792 5793 5795 5797 5799 5800 5802 5804
5853 5852 5852 5850 5849 5848 5848 5847 5846 5845 5843 5841 5839 5837 5834 5831 5827 5824 5820 5817 5815 5812 5810 5806 5803 5800 5798 5795 5793 5791 5789 5788 5786 5785 5784 5784 5782 5783 5783 5783 5784 5785 5785 5787 5789 5791 5793 5795 5797
5852 5851 5850 5849 5847 5846 5844 5844 5843 5840 5838 5836 5833 5830 5827 5824 5820 5817 5813 5810 5807 5804 5801 5797 5794 5791 5788 5786 5783 5781 5780 5778 5778 5777 5776 5776 5776 5776 5775 5775 5776 5777 5778 5779 5781 5782 5784 5787 5790
5851 5850 5849 5847 5846 5845 5843 5841 5839 5836 5834 5831 5828 5825 5822 5818 5814 5811 5807 5803 5799 5796 5792 5788 5785 5781 5777 5774 5771 5769 5768 5767 5766 5766 5766 5766 5765 5766 5766 5766 5767 5768 5769 5770 5771 5773 5776 5778 5781
5850 5849 5848 5846 5844 5843 5841 5838 5836 5832 5830 5826 5823 5819 5815 5812 5808 5804 5800 5795 5791 5787 5782 5778 5773 5769 5765 5761 5758 5756 5754 5752 5752 5751 5752 5752 5752 5753 5754 5755 5756 5757 5758 5760 5761 5763 5766 5768 5771
5847 5846 5845 5843 5841 5839 5837 5835 5832 5828 5825 5821 5817 5813 5809 5805 5800 5796 5791 5786 5781 5776 5771 5766 5761 5757 5752 5748 5744 5741 5738 5736 5735 5734 5734 5735 5736 5737 5738 5740 5742 5744 5746 5748 5750 5752 5755 5757 5760
5845 5843 5842 5840 5837 5835 5833 5831 5828 5824 5820 5815 5811 5806 5801 5796 5791 5785 5780 5774 5769 5763 5758 5752 5747 5742 5737 5732 5728 5724 5721 5719 5717 5716 5715 5716 5717 5718 5720 5722 5725 5728 5731 5734 5737 5739 5742 5745 5749
5843 5841 5839 5836 5833 5831 5829 5826 5823 5818 5814 5809 5804 5798 5793 5787 5780 5774 5767 5760 5754 5747 5741 5735 5729 5724 5719 5715 5710 5706 5703 5700 5697 5696 5695 5695 5696 5697 5699 5702 5705 5709 5713 5717 5721 5725 5728 5732 5736
5841 5839 5836 5833 5831 5828 5824 5823 5817 5812 5807 5801 5795 5789 5783 5775 5768 5760 5753 5745 5738 5730 5723 5716 5710 5705 5700 5696 5692 5689 5685 5682 5679 5677 5675 5674 5674 5675 5678 5680 5684 5688 5692 5697 5702 5707 5712 5716 5721
5838 5836 5833 5831 5828 5824 5820 5819 5811 5805 5799 5793 5787 5780 5772 5764 5756 5748 5739 5731 5724 5716 5708 5701 5695 5689 5684 5679 5674 5670 5666 5663 5660 5658 5656 5654 5654 5654 5655 5658 5661 5665 5670 5675 5681 5686 5693 5699 5704
Wind_Speed
5 5 6 5 5 5 5 5 6 5 4 3 2 1 3 5 7 9 10 10 10 10 10 10 10 10 10 10 9 8 6 4 3 2 2 2 3 4 5 5 6 7 8 9 9 8 7 5 4
7 8 8 8 7 8 7 6 6 6 6 5 4 3 2 3 4 6 9 9 10 10 11 11 12 12 11 10 9 9 8 7 6 5 4 4 5 5 5 6 6 7 7 8 8 8 7 6 5
9 10 10 10 10 9 8 7 7 7 6 6 6 5 4 4 4 6 7 9 10 11 12 13 13 13 12 11 10 10 9 8 7 7 7 7 7 7 7 8 8 8 8 8 8 7 6 6 5
12 13 12 12 12 11 10 9 9 8 7 7 7 6 6 6 7 8 9 10 10 11 13 14 14 13 12 12 11 11 10 9 9 9 9 9 10 10 10 10 10 11 10 10 9 8 8 7 6
15 15 15 15 15 14 13 12 11 10 9 8 8 7 7 7 8 9 10 11 12 12 14 15 14 13 12 12 11 11 11 11 11 11 12 12 13 13 13 14 14 14 14 14 13 12 11 10 10
17 17 18 18 18 18 17 15 14 12 10 9 8 8 7 7 8 8 10 11 12 13 14 14 14 13 12 12 12 12 13 13 13 14 15 15 15 16 16 17 17 17 18 18 17 17 15 14 13
19 19 19 20 21 21 21 18 17 15 12 9 8 7 8 7 7 8 8 9 11 12 14 14 15 15 14 14 14 15 15 16 16 16 17 17 18 18 19 19 20 20 20 20 20 20 19 18 17
21 20 20 21 22 23 24 22 19 17 14 10 9 9 8 7 7 7 8 9 11 13 14 16 17 18 18 18 19 18 19 19 19 19 19 19 20 21 21 22 22 23 23 23 23 23 23 22 21
22 22 22 23 24 25 26 25 22 19 15 13 11 10 10 9 8 8 9 11 13 15 17 19 21 22 23 23 24 24 24 24 23 23 22 22 22 22 23 23 24 25 25 24 24 25 25 25 24
22 23 23 26 27 27 27 26 25 22 19 16 15 13 13 12 11 11 12 14 16 18 20 22 25 26 28 29 29 29 29 29 28 28 26 25 25 24 24 25 25 26 26 25 25 25 26 26 25
21 22 24 27 28 28 27 27 26 25 22 20 18 16 16 16 15 16 17 19 20 22 24 26 28 30 32 32 33 34 34 34 33 33 31 30 28 27 26 26 26 27 26 26 25 26 26 26 26
21 20 23 26 29 29 29 29 28 27 25 23 22 21 20 20 20 20 21 23 24 26 27 29 30 32 33 34 34 35 37 37 37 37 35 34 32 30 28 28 27 27 26 26 25 25 26 26 26
22 21 22 23 27 29 30 31 31 29 28 27 26 25 25 25 24 24 24 25 27 28 28 30 32 32 32 34 36 36 36 37 37 38 38 37 34 33 31 29 28 27 26 26 26 26 26 26 26
23 21 21 23 26 30 32 33 34 33 31 30 29 29 29 29 28 26 26 26 28 29 29 31 32 33 35 36 35 37 37 38 40 40 40 40 37 35 33 30 29 28 27 26 27 27 26 26 26
22 21 22 24 27 30 33 34 35 34 33 33 33 33 32 30 28 27 27 28 29 30 32 34 35 35 35 37 37 38 38 36 38 39 40 40 39 36 34 32 30 28 27 26 26 26 26 26 26
21 21 23 24 27 28 29 30 31 31 32 32 32 32 30 29 28 29 29 29 32 34 35 37 36 36 36 37 37 37 37 35 34 35 38 38 37 36 34 32 30 29 27 27 27 27 27 26 26
20 20 21 23 24 25 25 25 25 25 27 28 29 29 29 29 29 29 31 33 36 37 38 38 37 38 37 36 36 34 34 32 32 31 34 35 35 34 33 32 31 29 27 27 27 26 26 26 25
17 18 20 23 23 23 22 21 20 21 22 25 27 28 29 31 32 34 36 37 39 40 40 39 39 39 37 34 33 33 32 30 29 27 28 32 33 33 32 31 31 29 27 27 26 25 25 24 24
16 17 19 21 22 22 22 20 19 19 22 25 27 29 31 33 36 38 39 41 42 43 43 41 39 38 36 35 34 32 31 29 27 27 26 27 28 30 32 30 28 28 28 27 26 25 25 24 24
15 16 18 20 21 22 22 22 21 21 23 26 29 31 34 36 39 41 42 42 43 43 43 42 40 40 38 36 35 33 31 30 28 25 25 25 25 27 29 29 28 29 28 27 26 25 25 25 24
13 14 15 17 18 20 21 22 23 25 27 29 31 34 36 39 41 43 44 42 41 41 41 41 41 41 40 39 37 35 33 31 28 27 26 25 25 27 29 29 29 29 28 28 27 27 26 26 26
9 10 11 14 16 17 19 20 20 23 27 30 32 33 34 36 37 38 36 36 37 38 40 41 41 41 41 40 38 37 35 33 32 29 28 28 28 28 29 29 29 30 30 29 29 29 29 28 28
6 7 9 10 12 13 14 16 17 20 23 25 27 28 29 29 30 30 30 30 33 35 37 39 41 42 43 42 41 39 38 37 36 34 33 32 32 32 32 32 31 31 32 32 32 31 31 31 30
6 7 8 9 10 11 13 15 16 18 20 22 24 26 27 28 29 30 31 32 33 35 38 40 42 43 44 44 43 43 42 41 40 39 38 38 37 36 36 36 35 35 35 35 34 34 33 33 32
8 9 10 10 10 11 13 15 17 19 21 23 26 28 29 30 31 33 34 35 37 39 41 43 44 45 45 46 46 46 46 46 45 45 44 44 43 43 42 41 41 40 39 38 38 38 37 36 35
10 11 13 14 14 15 16 16 18 20 23 25 28 30 32 34 36 37 38 39 40 41 43 44 45 46 47 47 48 49 49 50 50 50 50 50 49 49 49 48 47 47 46 44 42 42 41 40 39
11 12 14 16 16 18 18 18 20 23 26 28 31 33 36 38 39 40 41 42 43 44 45 46 47 47 48 49 50 51 51 52 52 53 54 55 55 55 55 55 54 53 52 51 49 47 46 45 44
13 14 15 17 18 20 20 21 23 26 29 32 35 37 38 40 42 44 45 46 47 48 49 50 50 49 49 48 47 47 48 48 49 50 51 53 56 58 60 61 60 59 58 57 56 54 52 51 50
13 15 16 18 19 21 23 25 27 30 33 35 37 39 42 44 46 47 49 51 52 54 54 53 52 50 48 46 45 45 46 47 47 47 48 50 52 55 58 61 63 64 64 63 62 61 59 57 55
14 16 17 18 20 23 26 28 30 33 35 37 39 42 45 47 49 51 53 54 55 55 54 52 51 50 50 50 50 50 50 50 49 49 49 49 49 51 54 57 60 64 67 68 68 66 65 63 60
Wind_Direction
226 231 232 234 256 272 292 319 331 323 331 334 328 283 244 253 261 260 259 265 265 268 275 281 282 282 286 290 294 298 302 308 315 320 328 338 342 345 348 351 356 1 6 12 14 16 20 22 22
238 241 240 245 261 271 287 301 315 316 318 314 312 310 287 283 279 273 269 273 274 276 283 286 285 285 287 290 293 296 299 301 302 300 299 300 302 307 314 320 327 335 345 355 2 5 9 13 9
244 246 246 255 265 277 289 289 298 297 298 294 296 297 300 301 299 301 288 285 286 288 290 290 289 289 290 293 296 297 297 297 296 294 292 291 290 291 293 297 302 308 316 327 337 341 343 348 351
246 247 251 257 265 273 283 288 285 283 285 288 294 298 302 301 301 301 297 296 296 296 295 293 292 291 292 293 295 295 294 292 290 288 287 286 285 284 284 284 287 291 295 301 307 312 313 314 318
251 251 254 258 264 269 271 273 275 267 269 278 283 282 293 298 303 304 303 302 300 298 297 294 293 292 291 292 292 290 288 285 283 283 284 284 283 281 280 279 280 283 286 290 292 294 295 295 296
253 254 254 259 264 268 267 268 267 267 266 274 274 270 286 297 304 305 306 303 300 298 297 295 292 289 288 287 286 284 283 282 281 282 282 281 280 280 279 278 278 280 282 284 286 287 287 286 286
255 256 255 259 263 268 270 271 271 270 266 269 272 270 278 292 298 300 301 298 297 296 295 294 292 289 286 285 283 282 280 280 280 280 280 280 279 278 277 277 277 277 278 279 281 282 283 282 281
257 254 252 254 260 266 273 274 275 276 276 276 275 276 278 288 296 293 288 288 287 289 290 291 291 291 290 288 286 284 282 280 279 278 277 277 277 276 276 276 276 276 276 276 277 278 279 279 279
259 253 249 248 253 262 270 274 279 279 283 285 281 284 283 290 295 291 283 279 278 281 285 290 292 293 293 292 290 288 285 282 279 277 275 274 273 274 274 274 274 274 274 274 274 274 275 275 276
259 254 247 246 251 257 265 273 279 282 285 287 284 282 281 287 294 289 285 283 282 283 285 288 291 293 292 291 289 287 285 282 280 277 275 273 272 272 272 272 272 272 273 272 272 272 273 273 273
261 256 250 248 252 256 260 269 278 282 285 287 284 281 281 287 291 289 289 287 286 286 287 289 291 291 290 289 288 286 284 283 280 276 273 271 270 270 271 271 271 271 271 271 271 270 270 271 272
262 257 252 248 252 255 260 267 272 277 279 281 279 278 282 285 287 286 287 289 290 289 289 290 290 291 290 287 285 284 281 280 277 273 271 269 267 266 268 268 268 268 269 269 270 269 269 269 269
259 256 253 248 249 253 257 262 266 268 271 273 275 277 279 281 282 283 284 286 288 289 289 289 290 292 291 288 288 288 281 275 274 272 269 266 263 262 264 264 264 265 266 267 268 269 268 268 268
262 258 254 249 247 249 252 254 258 262 265 268 270 273 275 278 281 282 283 284 286 288 290 292 293 293 293 294 296 296 296 281 272 268 265 261 258 257 259 259 260 261 263 265 267 268 268 267 267
261 258 253 249 248 249 252 255 258 262 263 265 268 270 274 277 279 280 282 283 285 286 289 292 295 296 299 303 305 301 299 293 277 269 264 259 255 254 254 255 255 258 261 264 265 266 266 265 265
260 256 252 252 252 255 258 260 262 264 263 262 264 267 271 274 278 280 282 285 287 289 292 293 295 298 303 306 305 304 303 297 284 271 264 258 252 249 252 251 253 256 260 262 263 263 264 263 262
259 252 249 249 253 257 260 263 264 263 260 259 261 265 270 274 279 282 285 288 290 292 294 294 296 301 305 306 309 311 308 298 289 277 263 254 248 247 249 250 253 255 258 259 260 260 260 260 259
256 250 248 248 251 257 261 264 262 259 256 259 264 269 273 277 280 283 286 291 292 294 296 297 298 301 302 306 311 313 313 303 294 285 268 256 248 248 252 249 252 255 256 257 258 258 257 255 253
256 256 254 254 255 258 261 263 263 260 261 265 269 273 276 278 281 284 287 290 291 294 297 297 299 301 302 305 307 310 313 309 299 288 277 263 255 253 254 252 253 253 254 255 255 255 252 250 248
260 263 264 264 266 267 266 266 266 267 269 271 274 276 278 279 282 285 287 288 289 292 294 295 297 299 300 303 305 309 311 307 303 291 281 272 265 260 254 251 251 252 253 254 253 251 249 247 244
272 276 279 281 280 279 278 275 273 271 273 275 277 280 281 283 286 286 286 286 287 288 290 291 292 295 297 299 301 304 305 304 299 292 283 278 275 268 262 258 256 254 254 252 252 251 249 245 243
282 285 287 289 291 289 289 288 284 281 279 280 283 286 288 290 290 291 288 285 285 286 287 288 290 292 294 296 297 298 297 296 294 290 283 279 274 271 267 265 261 257 254 252 251 251 249 245 242
298 296 303 307 306 301 300 298 292 287 287 288 290 293 296 296 296 296 294 292 291 291 291 291 292 292 292 293 293 293 291 289 287 284 280 276 272 270 268 266 264 259 256 253 251 250 249 246 243
319 318 322 322 319 311 307 301 296 292 294 296 298 299 300 301 303 302 301 300 299 297 296 295 294 294 293 292 291 289 287 284 281 277 274 271 268 266 264 262 260 257 255 253 250 249 249 247 244
320 319 318 312 309 309 308 303 300 300 301 302 303 304 304 304 303 303 303 301 299 298 296 295 294 293 291 289 287 285 282 279 276 273 269 266 263 261 259 257 255 254 252 252 251 249 248 247 245
316 318 318 314 310 309 308 307 305 306 308 307 306 306 306 306 306 305 302 301 299 297 295 294 292 290 288 286 284 282 280 277 274 270 267 263 260 258 256 253 251 251 250 249 249 248 247 247 246
325 326 325 321 318 314 311 309 308 309 309 310 311 311 311 311 309 308 306 304 302 301 299 297 295 293 291 289 286 284 281 279 275 272 267 263 259 256 254 252 249 248 247 246 245 245 246 246 245
333 330 327 326 323 320 317 316 317 316 316 316 316 316 315 314 313 312 310 309 308 307 306 304 302 300 298 296 293 290 287 283 279 275 271 267 261 257 253 250 248 247 245 245 244 243 243 244 244
334 329 327 325 325 324 323 323 322 320 321 320 320 319 318 318 317 317 316 315 314 313 312 310 309 308 306 303 300 297 293 289 284 281 276 271 266 261 255 251 248 246 244 242 242 241 241 241 242
335 331 328 327 328 328 327 326 325 323 323 322 322 322 322 322 321 319 318 317 316 315 314 312 311 310 308 306 303 300 297 292 288 283 279 274 270 265 259 253 250 246 244 242 240 240 239 239 240